This demonstration page uses our WeatherBlox Daily Observations layout. Learn more.

Left ArrowRight Arrow

40.92501, -98.34201

Hourly Observations for January 16, 2023

Temp ( °F °C ) Dew Point ( °F °C ) Humidity (%) Winds ( mph kmh ) Pressure ( in mb ) Visibility ( mi km ) Precip ( " mm )
12:53 am 00:53 Partly Cloudy 34 1.1 30 -1.1 85 85 N 6 9 29.41 996 10 16 0.00 0.00
1:53 am 01:53 Cloudy 34 1.1 30 -1.1 85 85 NNW 8 13 29.41 996 10 16 0.00 0.00
2:53 am 02:53 Cloudy 35 1.7 31 -0.6 85 85 NNW 12 19 29.41 996 10 16 0.00 0.00
3:53 am 03:53 Cloudy 34 1.1 31 -0.6 88 88 N 6 9 29.40 996 10 16 0.01 0.13
4:53 am 04:53 Cloudy 35 1.7 31 -0.6 85 85 NNW 10 17 29.42 996 10 16 0.00 0.00
5:53 am 05:53 Cloudy 35 1.7 31 -0.6 85 85 NW 10 17 29.44 997 10 16 0.00 0.00
6:53 am 06:53 Mostly Cloudy 35 1.7 31 -0.6 85 85 NW 15 24 29.47 998 10 16 0.00 0.00
7:53 am 07:53 Clear 33 0.6 29 -1.7 85 85 NW 9 15 29.50 999 10 16 0.00 0.00
8:53 am 08:53 Mostly Sunny 36 2.2 32 0 85 85 NW 10 17 29.51 999 10 16 0.00 0.00
9:53 am 09:53 Partly Cloudy 38 3.3 32 0 79 79 NW 16 26 29.53 1000 10 16 0.00 0.00
10:15 am 10:15 Mostly Cloudy 38 3.3 32 0 79 79 NW 18 30 29.56 1001 10 16 0.00 0.00
10:53 am 10:53 Cloudy 38 3.3 32 0 79 79 NW 18 30 29.56 1001 10 16 0.00 0.00
11:53 am 11:53 Cloudy 38 3.3 32 0 79 79 NW 16 26 29.57 1002 10 16 0.00 0.00
12:53 pm 12:53 Cloudy 39 3.9 32 0 76 76 WNW 15 24 29.58 1002 10 16 0.00 0.00
1:53 pm 13:53 Cloudy 40 4.4 32 0 73 73 NW 15 24 29.58 1002 10 16 0.00 0.00
2:07 pm 14:07 Cloudy 41 5 32 0 70 70 WNW 16 26 29.58 1002 10 16 0.00 0.00
2:53 pm 14:53 Cloudy 41 5 32 0 70 70 WNW 17 28 29.59 1002 10 16 0.00 0.00
3:53 pm 15:53 Mostly Cloudy 41 5 32 0 70 70 NW 16 26 29.60 1002 10 16 0.00 0.00
4:53 pm 16:53 Mostly Sunny 39 3.9 31 -0.6 72 72 WNW 13 20 29.64 1004 10 16 0.00 0.00
5:10 pm 17:10 Mostly Cloudy 39 3.9 32 0 76 76 WNW 10 17 29.65 1004 10 16 0.00 0.00
5:53 pm 17:53 Cloudy 38 3.3 32 0 79 79 WNW 12 19 29.67 1005 10 16 0.00 0.00
6:53 pm 18:53 Cloudy 37 2.8 32 0 82 82 WNW 10 17 29.70 1006 10 16 0.00 0.00
7:53 pm 19:53 Cloudy 37 2.8 31 -0.6 78 78 NNW 10 17 29.71 1006 10 16 0.00 0.00
8:27 pm 20:27 Cloudy 37 2.8 31 -0.6 78 78 NNW 13 20 29.73 1007 10 16 0.00 0.00
8:53 pm 20:53 Cloudy 36 2.2 31 -0.6 82 82 NNW 10 17 29.73 1007 10 16 0.00 0.00
9:53 pm 21:53 Cloudy 35 1.7 30 -1.1 82 82 W 8 13 29.76 1008 10 16 0.00 0.00
10:19 pm 22:19 Cloudy 35 1.7 30 -1.1 82 82 WNW 8 13 29.77 1008 10 16 0.00 0.00
10:53 pm 22:53 Cloudy 34 1.1 30 -1.1 85 85 NW 8 13 29.75 1008 10 16 0.00 0.00
11:33 pm 23:33 Mostly Cloudy 34 1.1 30 -1.1 85 85 NNW 9 15 29.77 1008 10 16 0.00 0.00
11:53 pm 23:53 Cloudy 34 1.1 30 -1.1 85 85 NNW 9 15 29.75 1008 10 16 0.00 0.00

Powered by AerisWeather